Regional Weather Roundup
Issued by NWS

Home | Current Version | Previous Version | Graphics & Text | Print | Product List | Glossary On
Versions: 1 2 3 4 5 6 7 8 9 10 11 12 13 14 15 16 17 18 19 20 21 22 23 24 25 26 27 28 29 30 31 32 33 34 35 36 37 38 39 40 41 42 43 44 45 46 47 48 49 50
000
ASUS43 KLMK 200710
RWRKY
KENTUCKY REGIONAL WEATHER ROUNDUP
NATIONAL WEATHER SERVICE LOUISVILLE KY
300 AM EDT SUN APR 20 2014

NOTE "FAIR" INDICATES FEW OR NO CLOUDS BELOW 12,000 FEET
WITH NO SIGNIFICANT WEATHER AND/OR OBSTRUCTIONS TO VISIBILITY.

KYZ001>023-026-027-061>063-070>075-200800-
WESTERN AND SOUTH CENTRAL KENTUCKY

CITY           SKY/WX    TMP DP  RH WIND       PRES   REMARKS
PADUCAH        CLEAR     52  44  74 CALM      30.17S
HENDERSON      PTCLDY    43  43 100 CALM      30.19S
OWENSBORO      CLEAR     53  42  66 NE3       30.20S
HOPKINSVILLE   CLEAR     54  39  58 CALM      30.18S
BOWLING GREEN  CLEAR     48  38  68 CALM      30.19S
GLASGOW        CLEAR     56  35  45 CALM      30.18S
$$

KYZ024-025-028>034-038-045-046-053-200800-
NORTH CENTRAL KENTUCKY

CITY           SKY/WX    TMP DP  RH WIND       PRES   REMARKS
LOUISVILLE/SDF PTCLDY    54  38  54 NW6       30.20F
LOUISVILLE/LOU CLEAR     59  35  40 NE6       30.21F
FORT KNOX      CLEAR     55  35  48 N6        30.19F
$$

KYZ035>037-039>044-047>052-055>060-089>105-200800-
NORTHEAST KENTUCKY

CITY           SKY/WX    TMP DP  RH WIND       PRES   REMARKS
LEXINGTON      CLEAR     48  36  63 NE9       30.20F
COVINGTON      PTCLDY    52  34  50 NE8       30.23F
FRANKFORT      CLEAR     48  36  63 N3        30.20F
$$

KYZ054-064>069-076>088-106>120-200800-
SOUTHEAST KENTUCKY

CITY           SKY/WX    TMP DP  RH WIND       PRES   REMARKS
JACKSON        MOCLDY    55  31  39 VRB3      30.19F
LONDON         PTCLDY    53  36  52 N5        30.17F
SOMERSET       CLEAR     52  36  54 N3        30.19F
MIDDLESBORO    MOCLDY    45  41  86 CALM      30.19F
MONTICELLO     SUNNY     42  38  86 CALM      30.19F
$$




USA.gov is the U.S. government's official web portal to all federal, state and local government web resources and services.